User: anonymous   Login
Location: Berville
(49.1893°N, 2.0748°E)
Time: 20:37:36
(UTC+00:00)
Language:

NOAA 16 DEB - Orbit

View from above orbital plane
View from above orbital plane
View from above satellite
View from above satellite

Ground track
Ground track

The orbit data is extracted from the following two-line orbital elements,

1 41255U 00055FF  24054.52447630  .00006716  00000-0  23952-2 0  9996
2 41255  98.7353 162.5461 0040876  17.2605 342.9958 14.34042181427219
Epoch (UTC): 23 February 2024 12:35:14
Eccentricity: 0.0040876
inclination: 98.7353°
perigee height: 749 km
apogee height: 807 km
right ascension of ascending node: 162.5461°
argument of perigee: 17.2605°
revolutions per day: 14.34042181
mean anomaly at epoch: 342.9958°
orbit number at epoch: 42721

The dashed part of the orbit path shows where the satellite is in the earth's shadow,  

DLR